When you browse on this site, cookies collect data to enhance your experience and personalize the content and advertising you see.
Visit our Privacy Policy to learn more. By continuing to use the site, you agree to this use of cookies and data.
  • en Belgique
  • Liste des pays
  • À 7 jours
  • Température de l'eau
  • Carte météo
  • Widgets météo
  • user-avatar
    Se connecter

    Météo par heure à Pinsk

    Ce jour, 7 Juin, Dimanche

    Heure Température Précipitation Vent Pression Humidité
    00:00 +16°C° 0 mm 2 m/s 746 mmHg 86%
    01:00 +16°C° 0 mm 2 m/s 746 mmHg 88%
    02:00 +16°C° 0 mm 2 m/s 746 mmHg 92%
    03:00 +16°C° 0 mm 3 m/s 746 mmHg 92%
    04:00 +16°C° 0 mm 3 m/s 746 mmHg 92%
    05:00 +16°C° 0 mm 3 m/s 746 mmHg 92%
    06:00 +18°C° 0.5 mm 3 m/s 746 mmHg 92%
    07:00 +19°C° 0.5 mm 3 m/s 746 mmHg 91%
    08:00 +20°C° 0.5 mm 4 m/s 746 mmHg 91%
    09:00 +21°C° 0 mm 4 m/s 746 mmHg 86%
    10:00 +23°C° 0 mm 5 m/s 746 mmHg 81%
    11:00 +25°C° 0 mm 5 m/s 746 mmHg 77%
    12:00 +26°C° 0.1 mm 5 m/s 746 mmHg 72%
    13:00 +28°C° 0.1 mm 5 m/s 746 mmHg 68%
    14:00 +29°C° 0.1 mm 6 m/s 745 mmHg 64%
    15:00 +28°C° 0 mm 5 m/s 745 mmHg 66%
    16:00 +28°C° 0 mm 5 m/s 745 mmHg 68%
    17:00 +28°C° 0 mm 4 m/s 745 mmHg 70%
    18:00 +26°C° 0 mm 4 m/s 745 mmHg 75%
    19:00 +25°C° 0 mm 3 m/s 745 mmHg 80%
    20:00 +22°C° 0 mm 3 m/s 745 mmHg 85%
    21:00 +21°C° 0 mm 3 m/s 745 mmHg 87%
    22:00 +20°C° 0 mm 3 m/s 745 mmHg 89%
    23:00 +19°C° 0 mm 4 m/s 745 mmHg 90%

    Demain, 8 Juin, Lundi

    Heure Température Précipitation Vent Pression Humidité
    00:00 +19°C° 0 mm 4 m/s 745 mmHg 91%
    01:00 +18°C° 0 mm 4 m/s 745 mmHg 91%
    02:00 +18°C° 0 mm 4 m/s 745 mmHg 92%
    03:00 +18°C° 0 mm 3 m/s 745 mmHg 92%
    04:00 +17°C° 0 mm 3 m/s 745 mmHg 93%
    05:00 +17°C° 0 mm 3 m/s 745 mmHg 93%
    06:00 +19°C° 0 mm 3 m/s 745 mmHg 88%
    07:00 +20°C° 0 mm 4 m/s 745 mmHg 83%
    08:00 +21°C° 0 mm 4 m/s 745 mmHg 79%
    09:00 +23°C° 0 mm 4 m/s 745 mmHg 74%
    10:00 +25°C° 0 mm 5 m/s 746 mmHg 70%
    11:00 +27°C° 0 mm 5 m/s 746 mmHg 66%
    12:00 +28°C° 0 mm 5 m/s 746 mmHg 62%
    13:00 +28°C° 0 mm 4 m/s 746 mmHg 59%
    14:00 +29°C° 0 mm 4 m/s 746 mmHg 56%
    15:00 +29°C° 0.2 mm 4 m/s 746 mmHg 60%
    16:00 +28°C° 0.2 mm 3 m/s 745 mmHg 64%
    17:00 +28°C° 0.2 mm 3 m/s 745 mmHg 68%
    18:00 +26°C° 0.3 mm 3 m/s 745 mmHg 73%
    19:00 +24°C° 0.3 mm 3 m/s 745 mmHg 79%
    20:00 +22°C° 0.3 mm 3 m/s 745 mmHg 84%
    21:00 +21°C° 0.9 mm 2 m/s 745 mmHg 87%
    22:00 +20°C° 0.9 mm 2 m/s 745 mmHg 89%
    23:00 +19°C° 0.9 mm 2 m/s 746 mmHg 91%

    Après-demain, 9 Juin, Mardi

    Heure Température Précipitation Vent Pression Humidité
    00:00 +19°C° 0.3 mm 2 m/s 746 mmHg 92%
    01:00 +18°C° 0.3 mm 2 m/s 746 mmHg 94%
    02:00 +18°C° 0.3 mm 2 m/s 746 mmHg 95%
    03:00 +18°C° 0 mm 2 m/s 745 mmHg 95%
    04:00 +18°C° 0 mm 2 m/s 745 mmHg 95%
    05:00 +18°C° 0 mm 2 m/s 745 mmHg 96%
    06:00 +19°C° 0 mm 3 m/s 745 mmHg 93%
    07:00 +21°C° 0 mm 3 m/s 746 mmHg 90%
    08:00 +22°C° 0 mm 3 m/s 746 mmHg 87%
    09:00 +24°C° 0.9 mm 3 m/s 746 mmHg 81%
    10:00 +26°C° 0.9 mm 4 m/s 746 mmHg 76%
    11:00 +27°C° 0.9 mm 4 m/s 746 mmHg 70%
    12:00 +27°C° 1.2 mm 4 m/s 746 mmHg 70%
    13:00 +27°C° 1.2 mm 3 m/s 746 mmHg 69%
    14:00 +28°C° 1.2 mm 2 m/s 746 mmHg 69%
    15:00 +28°C° 0.2 mm 2 m/s 746 mmHg 68%
    16:00 +28°C° 0.2 mm 2 m/s 745 mmHg 68%
    17:00 +28°C° 0.2 mm 2 m/s 745 mmHg 68%
    18:00 +27°C° 0.2 mm 2 m/s 745 mmHg 73%
    19:00 +25°C° 0.2 mm 2 m/s 745 mmHg 78%
    20:00 +22°C° 0.2 mm 3 m/s 745 mmHg 83%
    21:00 +21°C° 0.2 mm 2 m/s 745 mmHg 86%
    22:00 +21°C° 0.2 mm 2 m/s 746 mmHg 88%
    23:00 +20°C° 0.2 mm 2 m/s 746 mmHg 90%

    10 Juin, Mercredi

    Heure Température Précipitation Vent Pression Humidité
    00:00 +20°C° 0.2 mm 2 m/s 746 mmHg 92%
    01:00 +19°C° 0.2 mm 2 m/s 746 mmHg 93%
    02:00 +19°C° 0.2 mm 2 m/s 745 mmHg 95%
    03:00 +19°C° 0 mm 2 m/s 745 mmHg 95%
    04:00 +19°C° 0 mm 2 m/s 745 mmHg 96%
    05:00 +19°C° 0 mm 3 m/s 745 mmHg 97%
    06:00 +20°C° 0 mm 3 m/s 745 mmHg 94%
    07:00 +21°C° 0 mm 3 m/s 745 mmHg 91%
    08:00 +24°C° 0 mm 3 m/s 746 mmHg 88%
    09:00 +25°C° 0.6 mm 3 m/s 746 mmHg 81%
    10:00 +26°C° 0.6 mm 3 m/s 745 mmHg 75%
    11:00 +28°C° 0.6 mm 3 m/s 745 mmHg 68%
    12:00 +28°C° 0.6 mm 3 m/s 745 mmHg 67%
    13:00 +28°C° 0.6 mm 3 m/s 745 mmHg 66%
    14:00 +28°C° 0.6 mm 3 m/s 745 mmHg 65%
    15:00 +28°C° 0.7 mm 3 m/s 745 mmHg 67%
    16:00 +28°C° 0.7 mm 2 m/s 745 mmHg 69%
    17:00 +28°C° 0.7 mm 2 m/s 745 mmHg 70%
    18:00 +26°C° 0.5 mm 1 m/s 745 mmHg 74%
    19:00 +25°C° 0.5 mm 1 m/s 745 mmHg 78%
    20:00 +24°C° 0.5 mm 1 m/s 745 mmHg 83%
    21:00 +23°C° 0.1 mm 1 m/s 745 mmHg 85%
    22:00 +21°C° 0.1 mm 2 m/s 745 mmHg 87%
    23:00 +20°C° 0.1 mm 2 m/s 745 mmHg 89%

    11 Juin, Jeudi

    Heure Température Précipitation Vent Pression Humidité
    00:00 +20°C° 0 mm 2 m/s 745 mmHg 91%
    01:00 +20°C° 0 mm 2 m/s 745 mmHg 93%
    02:00 +19°C° 0 mm 2 m/s 745 mmHg 94%
    03:00 +19°C° 0 mm 2 m/s 745 mmHg 95%
    04:00 +19°C° 0 mm 2 m/s 745 mmHg 95%
    05:00 +19°C° 0 mm 2 m/s 745 mmHg 96%
    06:00 +21°C° 0.1 mm 3 m/s 745 mmHg 93%
    07:00 +22°C° 0.1 mm 3 m/s 745 mmHg 90%
    08:00 +24°C° 0.1 mm 3 m/s 745 mmHg 87%
    09:00 +26°C° 1.2 mm 3 m/s 745 mmHg 84%
    10:00 +27°C° 1.2 mm 3 m/s 745 mmHg 80%
    11:00 +28°C° 1.2 mm 4 m/s 745 mmHg 77%
    12:00 +28°C° 0.8 mm 4 m/s 744 mmHg 75%
    13:00 +29°C° 0.8 mm 4 m/s 744 mmHg 73%
    14:00 +29°C° 0.8 mm 4 m/s 744 mmHg 71%
    15:00 +29°C° 0.5 mm 3 m/s 744 mmHg 72%
    16:00 +29°C° 0.5 mm 3 m/s 744 mmHg 73%
    17:00 +29°C° 0.5 mm 3 m/s 744 mmHg 73%
    18:00 +28°C° 0.1 mm 3 m/s 744 mmHg 76%
    19:00 +26°C° 0.1 mm 3 m/s 744 mmHg 78%
    20:00 +25°C° 0.1 mm 2 m/s 744 mmHg 80%
    21:00 +24°C° 0 mm 2 m/s 744 mmHg 82%
    22:00 +23°C° 0 mm 2 m/s 744 mmHg 84%
    23:00 +21°C° 0 mm 2 m/s 745 mmHg 86%

    12 Juin, Vendredi

    Heure Température Précipitation Vent Pression Humidité
    00:00 +20°C° 0 mm 2 m/s 744 mmHg 87%
    01:00 +20°C° 0 mm 2 m/s 744 mmHg 88%
    02:00 +19°C° 0 mm 3 m/s 744 mmHg 90%
    03:00 +19°C° 0 mm 2 m/s 744 mmHg 91%
    04:00 +19°C° 0 mm 2 m/s 744 mmHg 93%
    05:00 +19°C° 0 mm 2 m/s 744 mmHg 94%
    06:00 +21°C° 0 mm 2 m/s 744 mmHg 92%
    07:00 +22°C° 0 mm 3 m/s 744 mmHg 90%
    08:00 +25°C° 0 mm 3 m/s 744 mmHg 88%
    09:00 +26°C° 0.1 mm 3 m/s 744 mmHg 84%
    10:00 +27°C° 0.1 mm 4 m/s 744 mmHg 79%
    11:00 +28°C° 0.1 mm 4 m/s 744 mmHg 74%
    12:00 +29°C° 0.1 mm 4 m/s 744 mmHg 71%
    13:00 +30°C° 0.1 mm 4 m/s 744 mmHg 67%
    14:00 +30°C° 0.1 mm 3 m/s 743 mmHg 63%
    15:00 +30°C° 0.1 mm 3 m/s 743 mmHg 65%
    16:00 +30°C° 0.1 mm 3 m/s 743 mmHg 67%
    17:00 +30°C° 0.1 mm 3 m/s 743 mmHg 69%
    18:00 +28°C° 0.2 mm 3 m/s 743 mmHg 73%
    19:00 +27°C° 0.2 mm 3 m/s 743 mmHg 78%
    20:00 +25°C° 0.2 mm 3 m/s 743 mmHg 82%
    21:00 +24°C° 0 mm 3 m/s 743 mmHg 82%
    22:00 +22°C° 0 mm 3 m/s 743 mmHg 83%
    23:00 +21°C° 0 mm 3 m/s 744 mmHg 84%
    Voir plus